Helena, Arkansas, United States (72342)
Lat: 34.53N, Lon: 90.59W
Wx Zone: ARZ058
Local Info
Past Weather Observations for Saturday, October 25, 2014

NOTE: This archive is for the closest National Weather Service station to Helena. Information may differ from the station used for current weather conditions.

Click here for Long-term Archive

Time Weather Temperature Dewpoint Humidity Pressure Winds Precip Visibility
23:55
Clear
63°F / 17°C 61°F / 16°C 94% 30.04 in
(1017 mb)
S 3.5 mph
(S 6 kph)
- 7SM
23:35
Clear
63°F / 17°C 61°F / 16°C 94% 30.04 in
(1017 mb)
SSE 4.6 mph
(SSE 7 kph)
- 7SM
23:15
Clear
63°F / 17°C 59°F / 15°C 88% 30.04 in
(1017 mb)
SSE 4.6 mph
(SSE 7 kph)
- 7SM
22:55
Clear
63°F / 17°C 61°F / 16°C 94% 30.04 in
(1017 mb)
SW 3.5 mph
(SW 6 kph)
- 10SM
22:35
Clear
63°F / 17°C 59°F / 15°C 88% 30.04 in
(1017 mb)
Calm - 7SM
22:15
Clear
64°F / 18°C 61°F / 16°C 88% 30.06 in
(1018 mb)
S 3.5 mph
(S 6 kph)
- 10SM
21:55
Clear
64°F / 18°C 61°F / 16°C 88% 30.06 in
(1018 mb)
S 3.5 mph
(S 6 kph)
- 10SM
21:35
Clear
64°F / 18°C 61°F / 16°C 88% 30.06 in
(1018 mb)
SSE 3.5 mph
(SSE 6 kph)
- 10SM
21:15
Clear
66°F / 19°C 61°F / 16°C 83% 30.06 in
(1018 mb)
SW 3.5 mph
(SW 6 kph)
- 10SM
20:55
Clear
64°F / 18°C 61°F / 16°C 88% 30.06 in
(1018 mb)
Calm - 10SM
20:35
Clear
66°F / 19°C 61°F / 16°C 83% 30.06 in
(1018 mb)
Calm - 10SM
20:15
Clear
66°F / 19°C 61°F / 16°C 83% 30.06 in
(1018 mb)
Calm - 10SM
19:55
Clear
64°F / 18°C 61°F / 16°C 88% 30.06 in
(1018 mb)
Calm - 10SM
19:35
Clear
68°F / 20°C 61°F / 16°C 78% 30.04 in
(1017 mb)
Calm - 10SM
19:15
Clear
68°F / 20°C 63°F / 17°C 83% 30.04 in
(1017 mb)
S 4.6 mph
(S 7 kph)
- 10SM
18:55
Partly Cloudy
68°F / 20°C 61°F / 16°C 78% 30.04 in
(1017 mb)
Calm - 10SM
18:35
Partly Cloudy
70°F / 21°C 61°F / 16°C 73% 30.04 in
(1017 mb)
SW 3.5 mph
(SW 6 kph)
- 10SM
18:15
Partly Cloudy
72°F / 22°C 63°F / 17°C 73% 30.04 in
(1017 mb)
SSE 3.5 mph
(SSE 6 kph)
- 10SM
17:55
Clear
70°F / 21°C 61°F / 16°C 73% 30.04 in
(1017 mb)
Calm - 10SM
17:35
Clear
75°F / 24°C 63°F / 17°C 65% 30.04 in
(1017 mb)
SW 3.5 mph
(SW 6 kph)
- 10SM
17:15
Clear
77°F / 25°C 63°F / 17°C 61% 30.04 in
(1017 mb)
SW 4.6 mph
(SW 7 kph)
- 10SM
16:55
Clear
77°F / 25°C 63°F / 17°C 61% 30.04 in
(1017 mb)
SW 4.6 mph
(SW 7 kph)
- 10SM
16:35
Clear
79°F / 26°C 63°F / 17°C 58% 30.04 in
(1017 mb)
SW 5.8 mph
(SW 9 kph)
- 10SM
16:15
Clear
81°F / 27°C 63°F / 17°C 54% 30.04 in
(1017 mb)
SW 4.6 mph
(SW 7 kph)
- 10SM
15:55
Clear
81°F / 27°C 63°F / 17°C 54% 30.04 in
(1017 mb)
SW 4.6 mph
(SW 7 kph)
- 10SM
15:35
Clear
81°F / 27°C 63°F / 17°C 54% 30.04 in
(1017 mb)
SSW 5.8 mph
(SSW 9 kph)
- 10SM
15:15
Clear
82°F / 28°C 63°F / 17°C 51% 30.04 in
(1017 mb)
W 6.9 mph
(W 11 kph)
- 10SM
14:55
Clear
82°F / 28°C 63°F / 17°C 51% 30.04 in
(1017 mb)
SSW 5.8 mph
(SSW 9 kph)
- 10SM
14:35
Clear
82°F / 28°C 63°F / 17°C 51% 30.04 in
(1017 mb)
SSW 5.8 mph
(SSW 9 kph)
- 10SM
14:15
Clear
81°F / 27°C 63°F / 17°C 54% 30.04 in
(1017 mb)
SSW 6.9 mph
(SSW 11 kph)
- 10SM
13:55
Clear
81°F / 27°C 63°F / 17°C 54% 30.04 in
(1017 mb)
SSW 9.2 mph
(SSW 15 kph)
- 10SM
13:35
Clear
81°F / 27°C 63°F / 17°C 54% 30.04 in
(1017 mb)
SW 6.9 mph
(SW 11 kph)
- 10SM
13:15
Partly Cloudy
81°F / 27°C 63°F / 17°C 54% 30.04 in
(1017 mb)
SSW 6.9 mph
(SSW 11 kph)
- 10SM
12:55
Partly Cloudy
79°F / 26°C 61°F / 16°C 54% 30.06 in
(1018 mb)
SSW 10.4 mph
(SSW 17 kph)
- 10SM
12:35
Clear
79°F / 26°C 61°F / 16°C 54% 30.06 in
(1018 mb)
W 4.6 mph
(W 7 kph)
- 10SM
12:15
Clear
79°F / 26°C 61°F / 16°C 54% 30.06 in
(1018 mb)
SSE 5.8 mph
(SSE 9 kph)
- 10SM
11:55
Clear
79°F / 26°C 61°F / 16°C 54% 30.09 in
(1019 mb)
SW 8.1 mph
(SW 13 kph)
- 10SM
11:35
Partly Cloudy
77°F / 25°C 61°F / 16°C 57% 30.09 in
(1019 mb)
SSW 8.1 mph
(SSW 13 kph)
- 10SM
11:15
Partly Cloudy
77°F / 25°C 61°F / 16°C 57% 30.12 in
(1020 mb)
SW 8.1 mph
(SW 13 kph)
- 10SM
10:55
Clear
75°F / 24°C 61°F / 16°C 61% 30.12 in
(1020 mb)
SSW 6.9 mph
(SSW 11 kph)
- 10SM
10:35
Clear
73°F / 23°C 59°F / 15°C 61% 30.12 in
(1020 mb)
SSW 4.6 mph
(SSW 7 kph)
- 10SM
10:15
Clear
73°F / 23°C 59°F / 15°C 61% 30.12 in
(1020 mb)
W 6.9 mph
(W 11 kph)
- 10SM
09:55
Clear
72°F / 22°C 59°F / 15°C 65% 30.12 in
(1020 mb)
SSW 9.2 mph
(SSW 15 kph)
- 10SM
09:35
Clear
72°F / 22°C 59°F / 15°C 65% 30.12 in
(1020 mb)
SSW 9.2 mph
(SSW 15 kph)
- 10SM
09:15
Clear
70°F / 21°C 59°F / 15°C 69% 30.12 in
(1020 mb)
SSW 8.1 mph
(SSW 13 kph)
- 10SM
08:55
Clear
68°F / 20°C 59°F / 15°C 73% 30.12 in
(1020 mb)
SW 5.8 mph
(SW 9 kph)
- 10SM
08:35
Clear
64°F / 18°C 59°F / 15°C 83% 30.12 in
(1020 mb)
SW 6.9 mph
(SW 11 kph)
- 10SM
08:15
Clear
63°F / 17°C 57°F / 14°C 83% 30.12 in
(1020 mb)
SW 5.8 mph
(SW 9 kph)
- 10SM
07:55
Clear
61°F / 16°C 57°F / 14°C 88% 30.12 in
(1020 mb)
SSE 5.8 mph
(SSE 9 kph)
- 10SM
07:35
Clear
57°F / 14°C 55°F / 13°C 94% 30.12 in
(1020 mb)
S 3.5 mph
(S 6 kph)
- 10SM
07:15
Clear
Fog And Mist
55°F / 13°C 54°F / 12°C 94% 30.12 in
(1020 mb)
SSE 3.5 mph
(SSE 6 kph)
- 5SM
06:55
Clear
Fog And Mist
52°F / 11°C 52°F / 11°C 100% 30.12 in
(1020 mb)
S 4.6 mph
(S 7 kph)
- 5SM
06:35
Clear
Fog And Mist
52°F / 11°C 50°F / 10°C 94% 30.12 in
(1020 mb)
S 4.6 mph
(S 7 kph)
- 4SM
06:15
Clear
Fog And Mist
52°F / 11°C 50°F / 10°C 94% 30.12 in
(1020 mb)
S 5.8 mph
(S 9 kph)
- 5SM
05:55
Clear
Fog And Mist
50°F / 10°C 50°F / 10°C 100% 30.12 in
(1020 mb)
S 4.6 mph
(S 7 kph)
- 5SM
05:35
Clear
Fog And Mist
52°F / 11°C 50°F / 10°C 94% 30.12 in
(1020 mb)
S 5.8 mph
(S 9 kph)
- 5SM
05:15
Clear
Fog And Mist
52°F / 11°C 52°F / 11°C 100% 30.12 in
(1020 mb)
SSE 4.6 mph
(SSE 7 kph)
- 4SM
04:55
Clear
Fog And Mist
52°F / 11°C 50°F / 10°C 94% 30.12 in
(1020 mb)
SSE 4.6 mph
(SSE 7 kph)
- 4SM
04:35
Clear
Fog And Mist
50°F / 10°C 50°F / 10°C 100% 30.12 in
(1020 mb)
SSE 3.5 mph
(SSE 6 kph)
- 3SM
04:15
Clear
Fog And Mist
52°F / 11°C 50°F / 10°C 94% 30.12 in
(1020 mb)
Calm - 5SM
03:55
Clear
Fog And Mist
52°F / 11°C 52°F / 11°C 100% 30.12 in
(1020 mb)
S 3.5 mph
(S 6 kph)
- 5SM
03:35
Clear
Fog And Mist
52°F / 11°C 52°F / 11°C 100% 30.09 in
(1019 mb)
SSE 3.5 mph
(SSE 6 kph)
- 5SM
03:15
Clear
54°F / 12°C 52°F / 11°C 94% 30.09 in
(1019 mb)
S 3.5 mph
(S 6 kph)
- 7SM
02:55
Clear
Fog And Mist
52°F / 11°C 52°F / 11°C 100% 30.09 in
(1019 mb)
SSE 5.8 mph
(SSE 9 kph)
- 5SM
02:35
Clear
52°F / 11°C 52°F / 11°C 100% 30.09 in
(1019 mb)
S 4.6 mph
(S 7 kph)
- 7SM
02:15
Clear
52°F / 11°C 50°F / 10°C 94% 30.09 in
(1019 mb)
SSE 4.6 mph
(SSE 7 kph)
- 7SM
01:55
Clear
52°F / 11°C 50°F / 10°C 94% 30.09 in
(1019 mb)
SSE 4.6 mph
(SSE 7 kph)
- 7SM
01:35
Clear
52°F / 11°C 52°F / 11°C 100% 30.09 in
(1019 mb)
SW 3.5 mph
(SW 6 kph)
- 7SM
01:15
Clear
54°F / 12°C 52°F / 11°C 94% 30.09 in
(1019 mb)
Calm - 10SM
00:55
Clear
54°F / 12°C 52°F / 11°C 94% 30.09 in
(1019 mb)
S 3.5 mph
(S 6 kph)
- 7SM
00:35
Clear
54°F / 12°C 52°F / 11°C 94% 30.09 in
(1019 mb)
Calm - 7SM
00:15
Clear
54°F / 12°C 54°F / 12°C 100% 30.09 in
(1019 mb)
Calm - 10SM
Time Weather Temperature Dewpoint Humidity Pressure Winds Precip Visibility


Weather for websites

WeatherForYou.com, LLC is not responsible for any damages or problems caused by this service. Current weather conditions are obtained from the closest station including government and personal stations which may have varying degrees of accuracy. Weather forecasts are derived from the NOAA NDFD. Like all things, this site belongs to Jesus Christ... He just trusts me to maintain it. If you have any questions or comments email webmaster@weatherforyou.com

Copyright © 2014, WeatherForYou.com LLC. All rights reserved.